Location: Lawrenceville
(33.9572°N, 83.9896°W)
Time: 04:15:56
(UTC+00:00)

Hubble Space Telescope - Visible Passes

Search period start: 20 April 2024 00:00
Search period end: 30 April 2024 00:00
Orbit: 513 x 517 km, 28.5° (Epoch: 19 April)

Date Brightness Start Highest point End Pass type
(mag) Time Alt. Az. Time Alt. Az. Time Alt. Az.
20 Apr 2.8 01:31:00 10° SW 01:33:17 15° SSW 01:34:27 13° S visible
21 Apr 3.0 01:13:12 10° SW 01:15:05 13° SSW 01:16:59 10° S visible
22 Apr 3.2 00:55:34 10° SW 00:56:53 11° SSW 00:58:11 10° S visible
